Location: Bosdarros
(43.2167°N, 0.3667°W)
Time: 03:11:26
(UTC+00:00)

USA 229 - Pass Details

Date: 22 April 2021
Orbit: 958 x 1254 km, 63.4° (Epoch: 23 April)

Event Time Altitude Azimuth Distance (km) Brightness Sun altitude
Rises 22:16:17 0° 323° (NW) 3,969 7.9 -29.4°
Reaches altitude 10° 22:18:55 10° 325° (NW) 3,047 7.0 -29.7°
Maximum altitude 22:26:18 79° 53° (NE) 1,224 3.8 -30.3°
Enters shadow 22:27:07 71° 110° (ESE) 1,268 3.8 -30.4°
